Regional Weather Roundup
Issued by NWS Sioux Falls, SD

Home | Current Version | Previous Version | Text Only | Print | Product List | Glossary On
Versions: 1 2 3 4 5 6 7 8 9 10 11 12 13 14 15 16 17 18 19 20 21 22 23 24 25 26 27 28 29 30 31 32 33 34 35 36 37 38 39 40 41 42 43 44 45 46 47 48 49 50
000
ASUS43 KFSD 290702
RWRFSD

WEATHER ROUNDUP FOR SE SOUTH DAKOTA/SW MINNESOTA/NW IOWA
NATIONAL WEATHER SERVICE SIOUX FALLS SD
100 AM CST THU JAN 29 2015

NOTE: "FAIR" INDICATES FEW OR NO CLOUDS BELOW 12,000 FEET WITH NO
SIGNIFICANT WEATHER AND OR OBSTRUCTIONS TO VISIBILITY.


SDZ038>040-050-052>070-290800-
SOUTHEAST SOUTH DAKOTA

CITY           SKY/WX    TMP DP  RH WIND       PRES   REMARKS
CHAMBERLAIN    NOT AVBL
HURON          CLOUDY    33  27  78 N21G35    30.16R WCI  21
MADISON        CLOUDY    32  32 100 NW21G37   30.06R WCI  20
MITCHELL       CLOUDY    35  30  82 NW28G33   30.16R WCI  22
SIOUX FALLS    CLOUDY    34  27  75 N25G32    30.04R WCI  21
WINNER         CLOUDY    37  29  72 NW21      30.24R
YANKTON        CLOUDY   N/A N/A N/A NW25G38   30.12R
$$

MNZ071-072-080-081-089-090-097-098-290800-
SOUTHWEST MINNESOTA

CITY           SKY/WX    TMP DP  RH WIND       PRES   REMARKS
FAIRMONT       CLOUDY    34  28  80 NW21G26   29.89R WCI  22
JACKSON        CLOUDY    34  32  93 NW28G39   29.92R FOG     WCI  20
LUVERNE        CLOUDY    34  32  93 NW21G30   30.02R WCI  22
MARSHALL       CLOUDY    32  27  80 N29G41    30.00R WCI  18
MONTEVIDEO     FLURRIES  32  32 100 N24G32    30.00R WCI  19
PIPESTONE      CLOUDY    34  30  86 N17G35    30.00R WCI  23
REDWOOD FALLS  CLOUDY    33  31  92 NW21G31   29.96R WCI  21
TRACY          MIX PCPN  33  32  96 NW18G29   29.98R WCI  22
WINDOM         MIX PCPN  34  32  93 NW25G36   29.94R WCI  21
WORTHINGTON    CLOUDY   N/A N/A N/A N26G39    29.96R
$$

IAZ001>003-012>014-020>022-031-032-NEZ013-014-SDZ071-290800-
NORTHWEST IOWA

CITY           SKY/WX    TMP DP  RH WIND       PRES   REMARKS
ESTHERVILLE    CLOUDY    33  31  92 N23G32    29.92R WCI  21
SIOUX CITY     CLOUDY    36  30  79 NW24G41   30.03R
SPENCER        CLOUDY    34  30  85 N24G36    29.95R WCI  21
$$

ABBREVIATIONS USED IN REMARKS
   TC - TEMPERATURE IN CELSIUS
  WCI - WIND CHILL INDEX
   HX - HEAT INDEX
  VSB - VISIBILITY



USA.gov is the U.S. government's official web portal to all federal, state and local government web resources and services.